TimeEST,TemperatureF,Dew PointF,Humidity,Sea Level PressureIn,VisibilityMPH,Wind Direction,Wind SpeedMPH,Gust SpeedMPH,PrecipitationIn,Events,Conditions,WindDirDegrees,DateUTC
12:14 AM,35.8,34.3,94,29.71,1.2,Calm,Calm,-,N/A,,Overcast,0,2012-12-19 05:14:00
12:33 AM,35.8,34.3,94,29.72,1.5,Calm,Calm,-,N/A,,Overcast,0,2012-12-19 05:33:00
12:54 AM,35.8,34.7,96,29.72,1.8,Calm,Calm,-,N/A,,Overcast,0,2012-12-19 05:54:00
1:14 AM,35.8,34.7,96,29.72,1.5,Calm,Calm,-,N/A,,Overcast,0,2012-12-19 06:14:00
1:34 AM,35.8,34.7,96,29.74,1.5,Calm,Calm,-,N/A,,Overcast,0,2012-12-19 06:34:00
1:54 AM,35.8,34.7,96,29.75,1.5,Calm,Calm,-,N/A,,Overcast,0,2012-12-19 06:54:00
2:14 AM,36.0,34.7,95,29.76,1.0,Calm,Calm,-,N/A,,Overcast,0,2012-12-19 07:14:00
2:34 AM,36.0,34.7,95,29.77,1.0,Calm,Calm,-,N/A,,Overcast,0,2012-12-19 07:34:00
2:54 AM,35.8,34.7,96,29.78,1.2,Calm,Calm,-,N/A,,Overcast,0,2012-12-19 07:54:00
3:14 AM,35.6,34.5,96,29.80,1.2,North,3.5,-,N/A,,Overcast,350,2012-12-19 08:14:00
3:34 AM,35.6,34.2,94,29.80,1.2,Calm,Calm,-,N/A,,Overcast,0,2012-12-19 08:34:00
3:54 AM,35.6,34.2,94,29.82,1.2,NNW,3.5,-,N/A,,Overcast,340,2012-12-19 08:54:00
4:14 AM,35.6,34.2,94,29.83,1.2,Calm,Calm,-,N/A,,Overcast,0,2012-12-19 09:14:00
4:34 AM,35.6,34.3,95,29.82,1.2,Calm,Calm,-,N/A,,Overcast,0,2012-12-19 09:34:00
4:54 AM,35.6,34.5,96,29.84,1.5,WNW,3.5,-,N/A,,Overcast,300,2012-12-19 09:54:00
5:14 AM,35.6,34.7,97,29.85,1.8,NNW,3.5,-,N/A,,Overcast,330,2012-12-19 10:14:00
5:34 AM,35.6,34.7,97,29.85,1.0,NW,3.5,-,N/A,,Overcast,310,2012-12-19 10:34:00
5:54 AM,35.8,34.7,96,29.87,1.2,WNW,6.9,-,N/A,,Overcast,300,2012-12-19 10:54:00
6:14 AM,35.8,34.7,96,29.88,1.5,WNW,5.8,-,N/A,,Overcast,300,2012-12-19 11:14:00
6:34 AM,35.8,34.7,96,29.89,2.0,WNW,5.8,-,N/A,,Overcast,290,2012-12-19 11:34:00
6:54 AM,35.6,34.5,96,29.89,2.0,NW,6.9,-,N/A,,Overcast,310,2012-12-19 11:54:00
7:14 AM,35.8,34.7,96,29.91,2.0,NW,5.8,-,N/A,,Overcast,320,2012-12-19 12:14:00
7:34 AM,35.6,34.2,94,29.91,2.5,NNW,8.1,-,N/A,,Overcast,340,2012-12-19 12:34:00
7:54 AM,35.2,33.8,94,29.92,4.0,NW,5.8,-,N/A,,Overcast,310,2012-12-19 12:54:00
8:15 AM,35.2,32.9,91,29.94,2.5,NW,4.6,-,N/A,,Overcast,320,2012-12-19 13:15:00
8:34 AM,35.4,32.5,89,29.95,3.0,Calm,Calm,-,N/A,,Overcast,0,2012-12-19 13:34:00
8:54 AM,35.2,32.4,89,29.96,3.0,WNW,3.5,-,N/A,,Overcast,290,2012-12-19 13:54:00
9:15 AM,35.6,32.4,88,29.97,4.0,West,5.8,-,N/A,,Overcast,270,2012-12-19 14:15:00
9:34 AM,35.6,32.4,88,29.99,4.0,Calm,Calm,-,N/A,,Overcast,0,2012-12-19 14:34:00
9:54 AM,36.0,32.7,88,30.00,4.0,WNW,4.6,-,N/A,,Overcast,290,2012-12-19 14:54:00
10:14 AM,35.8,32.5,88,30.01,3.0,WNW,5.8,-,N/A,,Overcast,290,2012-12-19 15:14:00
10:34 AM,36.5,32.9,87,30.02,4.0,WNW,4.6,-,N/A,,Overcast,300,2012-12-19 15:34:00
10:54 AM,36.5,33.1,87,30.03,4.0,West,4.6,-,N/A,,Overcast,270,2012-12-19 15:54:00
11:14 AM,36.9,33.3,87,30.03,3.0,West,4.6,-,N/A,,Overcast,280,2012-12-19 16:14:00
11:34 AM,37.8,33.3,84,30.04,4.0,Calm,Calm,-,N/A,,Haze,0,2012-12-19 16:34:00
11:55 AM,37.8,33.3,84,30.04,4.0,NW,4.6,-,N/A,,Haze,310,2012-12-19 16:55:00
12:14 PM,37.8,32.5,81,30.03,5.0,NW,4.6,-,N/A,,Haze,310,2012-12-19 17:14:00
12:34 PM,38.1,32.7,81,30.03,5.0,Calm,Calm,-,N/A,,Haze,0,2012-12-19 17:34:00
12:55 PM,38.7,32.9,80,30.03,5.0,Calm,Calm,-,N/A,,Haze,0,2012-12-19 17:55:00
1:14 PM,38.7,32.7,79,30.03,5.0,Calm,Calm,-,N/A,,Haze,0,2012-12-19 18:14:00
1:34 PM,39.2,32.2,76,30.03,7.0,Calm,Calm,-,N/A,,Scattered Clouds,0,2012-12-19 18:34:00
1:55 PM,39.2,32.2,76,30.03,7.0,Calm,Calm,-,N/A,,Clear,0,2012-12-19 18:55:00
2:14 PM,39.6,32.0,74,30.03,7.0,Calm,Calm,-,N/A,,Clear,0,2012-12-19 19:14:00
2:34 PM,41.2,32.2,70,30.04,10.0,Calm,Calm,-,N/A,,Clear,0,2012-12-19 19:34:00
2:55 PM,41.4,32.0,69,30.03,10.0,Calm,Calm,-,N/A,,Scattered Clouds,0,2012-12-19 19:55:00
3:14 PM,42.6,32.0,66,30.04,10.0,Calm,Calm,-,N/A,,Scattered Clouds,0,2012-12-19 20:14:00
3:34 PM,41.7,32.0,68,30.04,10.0,Calm,Calm,-,N/A,,Scattered Clouds,0,2012-12-19 20:34:00
3:55 PM,41.9,32.0,68,30.04,10.0,Calm,Calm,-,N/A,,Mostly Cloudy,0,2012-12-19 20:55:00
4:14 PM,41.2,32.2,70,30.05,10.0,Calm,Calm,-,N/A,,Overcast,0,2012-12-19 21:14:00
4:34 PM,41.0,32.0,70,30.06,10.0,Calm,Calm,-,N/A,,Overcast,0,2012-12-19 21:34:00
4:55 PM,40.8,32.0,71,30.06,10.0,Calm,Calm,-,N/A,,Overcast,0,2012-12-19 21:55:00
5:14 PM,40.3,32.0,72,30.07,10.0,Calm,Calm,-,N/A,,Overcast,0,2012-12-19 22:14:00
5:34 PM,40.1,32.0,73,30.08,10.0,Calm,Calm,-,N/A,,Overcast,0,2012-12-19 22:34:00
5:55 PM,39.2,33.4,80,30.07,10.0,Calm,Calm,-,N/A,,Overcast,0,2012-12-19 22:55:00
6:14 PM,38.3,32.7,80,30.08,10.0,Calm,Calm,-,N/A,,Overcast,0,2012-12-19 23:14:00
6:34 PM,37.6,32.9,83,30.08,10.0,Calm,Calm,-,N/A,,Overcast,0,2012-12-19 23:34:00
6:55 PM,37.6,32.0,80,30.08,10.0,Calm,Calm,-,N/A,,Overcast,0,2012-12-19 23:55:00
7:14 PM,36.7,32.0,83,30.09,10.0,Calm,Calm,-,N/A,,Mostly Cloudy,0,2012-12-20 00:14:00
7:34 PM,34.3,31.6,90,30.09,7.0,Calm,Calm,-,N/A,,Mostly Cloudy,0,2012-12-20 00:34:00
7:55 PM,34.3,31.6,90,30.09,7.0,Calm,Calm,-,N/A,,Mostly Cloudy,0,2012-12-20 00:55:00
8:14 PM,34.3,31.3,89,30.08,7.0,Calm,Calm,-,N/A,,Overcast,0,2012-12-20 01:14:00
8:34 PM,34.9,31.8,89,30.09,7.0,Calm,Calm,-,N/A,,Overcast,0,2012-12-20 01:34:00
8:55 PM,34.5,32.0,90,30.08,7.0,SE,4.6,-,N/A,,Mostly Cloudy,130,2012-12-20 01:55:00
9:14 PM,36.0,32.0,86,30.08,7.0,SE,6.9,-,N/A,,Scattered Clouds,140,2012-12-20 02:14:00
9:34 PM,36.1,32.2,86,30.09,7.0,SSE,6.9,-,N/A,,Mostly Cloudy,150,2012-12-20 02:34:00
9:55 PM,36.0,32.2,86,30.08,5.0,SSE,6.9,-,N/A,,Overcast,150,2012-12-20 02:55:00
10:14 PM,36.0,32.2,86,30.07,5.0,SSE,8.1,-,N/A,,Overcast,150,2012-12-20 03:14:00
10:34 PM,36.0,32.2,86,30.07,5.0,SSE,5.8,-,N/A,,Mostly Cloudy,150,2012-12-20 03:34:00
10:55 PM,36.0,32.2,86,30.07,7.0,ESE,6.9,-,N/A,,Mostly Cloudy,120,2012-12-20 03:55:00
11:14 PM,36.0,32.0,86,30.06,7.0,SE,5.8,-,N/A,,Mostly Cloudy,130,2012-12-20 04:14:00
11:34 PM,36.1,32.0,85,30.05,7.0,ESE,8.1,-,N/A,,Overcast,110,2012-12-20 04:34:00
11:54 PM,36.1,32.0,85,30.04,7.0,ESE,5.8,-,N/A,,Mostly Cloudy,120,2012-12-20 04:54:00